Weather History for Fort Knox, KY

Change the Weather History Date:

Friday, December 28, 2012

  Actual Average Record
Temperature  
Mean Temperature 32 °F -  
Max Temperature 36 °F 39 °F 66 °F (1996)
Min Temperature 29 °F 25 °F 14 °F (2000)
Degree Days  
Heating Degree Days 32    
Moisture  
Dew Point 30 °F    
Average Humidity 88    
Maximum Humidity 100    
Minimum Humidity 75    
Precipitation  
Precipitation 0.08 in - - ()
Sea Level Pressure  
Sea Level Pressure 29.94 in    
Wind  
Wind Speed 5 mph (ENE)    
Max Wind Speed 8 mph    
Max Gust Speed -    
Visibility 7 miles    
Events Rain , Snow    
Averages and records for this station are not official NWS values.
T = Trace of Precipitation, MM = Missing Value Source: NWS Daily Summary

Daily Weather History Graph

Daily Weather History Graph

Search for Another Location

Airport:

Trip Planner

Search our weather history database for the weather conditions in past years. The results will help you decide how hot, cold, wet, or windy it might be!

Date:

Astronomy

Dec. 28, 2012 Rise Set
Actual Time 7:58 AM EST 5:32 PM EST
Civil Twilight 7:29 AM EST 6:02 PM EST
Nautical Twilight 6:56 AM EST 6:35 PM EST
Astronomical Twilight 6:24 AM EST 7:07 PM EST
Moon 6:07 PM EST (12/28) 7:53 AM EST (12/28)
Length of Visible Light 10h 32m
Length of Day
9h 33m
Full, 100% of the Moon is Illuminated
Dec 28
Full
Jan 4
Last Quarter
Jan 11
New
Jan 18
First Quarter
Jan 26
Full

Hourly Weather History & Observations

Time (EST) Temp. Windchill Dew Point Humidity Pressure Visibility Wind Dir Wind Speed Gust Speed Precip Events Conditions
12:55 AM 31.1 °F 25.4 °F 26.1 °F 82% 30.14 in 10.0 mi SE 5.8 mph - N/A   Overcast
1:55 AM 30.9 °F 25.2 °F 25.2 °F 79% 30.13 in 10.0 mi ESE 5.8 mph - N/A   Overcast
2:55 AM 30.6 °F 23.1 °F 25.3 °F 81% 30.12 in 10.0 mi East 8.1 mph - N/A   Overcast
3:55 AM 30.2 °F 23.4 °F 24.8 °F 80% 30.12 in 10.0 mi East 6.9 mph - N/A   Overcast
4:55 AM 29.8 °F 23.0 °F 25.0 °F 82% 30.09 in 10.0 mi East 6.9 mph - N/A   Overcast
5:55 AM 30.0 °F 23.2 °F 25.7 °F 84% 30.08 in 10.0 mi East 6.9 mph - N/A   Overcast
6:55 AM 30.0 °F 26.5 °F 26.1 °F 85% 30.08 in 10.0 mi East 3.5 mph - N/A   Overcast
7:55 AM 30.4 °F - 26.1 °F 84% 30.10 in 10.0 mi Calm Calm - N/A   Overcast
8:55 AM 30.6 °F - 26.2 °F 84% 30.12 in 10.0 mi Calm Calm - N/A   Overcast
9:55 AM 31.5 °F 25.8 °F 26.6 °F 82% 30.11 in 10.0 mi ENE 5.8 mph - N/A   Overcast
10:55 AM 32.5 °F - 27.5 °F 82% 30.14 in 10.0 mi Calm Calm - N/A   Overcast
11:55 AM 33.4 °F 29.1 °F 28.0 °F 81% 30.09 in 10.0 mi East 4.6 mph - N/A   Overcast
12:55 PM 34.3 °F 28.4 °F 28.8 °F 80% 30.02 in 10.0 mi East 6.9 mph - N/A   Overcast
1:55 PM 35.4 °F 29.7 °F 29.1 °F 78% 30.01 in 10.0 mi ESE 6.9 mph - N/A   Overcast
2:19 PM 35.6 °F 29.9 °F 28.4 °F 75% 29.94 in 10.0 mi East 6.9 mph - N/A   Overcast
2:55 PM 36.5 °F 31.0 °F 29.5 °F 76% 29.96 in 10.0 mi ESE 6.9 mph - N/A   Overcast
3:55 PM 36.5 °F 31.8 °F 29.5 °F 76% 29.95 in 10.0 mi East 5.8 mph - N/A   Mostly Cloudy
4:55 PM 36.7 °F 32.9 °F 29.7 °F 76% 29.96 in 10.0 mi East 4.6 mph - N/A   Overcast
5:55 PM 36.5 °F 31.8 °F 30.6 °F 79% 29.92 in 10.0 mi East 5.8 mph - N/A   Overcast
6:16 PM 35.6 °F 31.7 °F 32.0 °F 87% 29.88 in 7.0 mi ENE 4.6 mph - N/A Rain Light Rain
6:55 PM 35.6 °F 29.9 °F 32.0 °F 87% 29.90 in 7.0 mi East 6.9 mph - 0.00 in Rain Light Rain
7:51 PM 35.6 °F 29.9 °F 32.0 °F 87% 29.85 in 4.0 mi East 6.9 mph - N/A Snow Light Snow
7:55 PM 34.7 °F 28.8 °F 32.2 °F 91% 29.88 in 4.0 mi East 6.9 mph - 0.00 in Snow Light Snow
8:55 PM 34.7 °F 28.8 °F 32.5 °F 92% 29.84 in 10.0 mi ENE 6.9 mph - 0.00 in Snow Light Snow
9:32 PM 33.8 °F 30.8 °F 32.0 °F 93% 29.83 in 2.0 mi North 3.5 mph - N/A Rain , Snow Light Rain
9:44 PM 32.0 °F 28.7 °F 32.0 °F 100% 29.82 in 1.2 mi NNE 3.5 mph - N/A Snow Light Snow
9:55 PM 33.3 °F 27.9 °F 31.6 °F 94% 29.84 in 1.2 mi ENE 5.8 mph - 0.02 in Snow Light Snow
10:30 PM 32.0 °F - 32.0 °F 100% 29.82 in 0.5 mi North 2.3 mph - N/A Snow Light Snow
10:55 PM 32.5 °F 27.1 °F 31.5 °F 96% 29.82 in 0.8 mi NNE 5.8 mph - 0.05 in Snow Light Snow
11:00 PM 32.0 °F 26.4 °F 32.0 °F 100% 29.81 in 3.0 mi NNE 5.8 mph - N/A Snow Light Snow
11:08 PM 32.0 °F 26.4 °F 32.0 °F 100% 29.81 in 3.0 mi NNE 5.8 mph - N/A Snow Light Snow
11:09 PM 32.0 °F 26.4 °F 32.0 °F 100% 29.81 in 3.0 mi NE 5.8 mph - N/A Snow Light Snow
11:23 PM 32.0 °F 26.4 °F 32.0 °F 100% 29.80 in 4.0 mi NE 5.8 mph - N/A Snow Light Snow
11:26 PM 32.0 °F 26.4 °F 32.0 °F 100% 29.80 in 4.0 mi NE 5.8 mph - N/A Snow Light Snow
11:28 PM 32.0 °F 26.4 °F 32.0 °F 100% 29.79 in 4.0 mi NE 5.8 mph - N/A Snow Light Snow
11:36 PM 32.0 °F 25.6 °F 32.0 °F 100% 29.79 in 5.0 mi NE 6.9 mph - N/A Snow Light Snow
11:38 PM 32.0 °F 25.6 °F 32.0 °F 100% 29.78 in 5.0 mi NE 6.9 mph - N/A Snow Light Snow
11:55 PM 32.5 °F 27.1 °F 31.8 °F 97% 29.78 in 3.0 mi ENE 5.8 mph - 0.01 in Snow Light Snow